Regional Weather Roundup
Issued by NWS

Home | Current Version | Previous Version | Graphics & Text | Print | Product List | Glossary On
Versions: 1 2 3 4 5 6 7 8 9 10 11 12 13 14 15 16 17 18 19 20 21 22 23 24 25 26 27 28 29 30 31 32 33 34 35 36 37 38 39 40 41 42 43 44 45 46 47 48 49 50
000
ASUS43 KIND 300059
RWRIN

WEATHER ROUNDUP FOR INDIANA
NATIONAL WEATHER SERVICE INDIANAPOLIS IN
800 PM EST THU JAN 29 2015

NOTE: "FAIR" INDICATES FEW OR NO CLOUDS BELOW 12,000 FEET WITH NO
SIGNIFICANT WEATHER AND/OR OBSTRUCTIONS TO VISIBILITY.

* - STATION DOES NOT REPORT WEATHER SUCH AS PRECIPITATION OR FOG.

+ - STATION NOT QUALITY CONTROLLED BY THE NATIONAL WEATHER SERVICE.
    USE DATA WITH CAUTION...ESPECIALLY DEWPOINT AND RELATIVE
    HUMIDITY OBSERVATIONS.

INZ001>003-010>013-019-020-300200-
NORTHWEST INDIANA

CITY           SKY/WX    TMP DP  RH WIND       PRES   REMARKS
GARY /AIRPORT/ CLOUDY    37  21  52 NW9G32    30.18R
VALPARAISO     NOT AVBL

$$

LMZ046-743>745-300200-
SOUTHERN LAKE MICHIGAN

STATION/POSITION TIME  TEMP WIND        PRES
                       AIR  DIR/SP/G
                 (UTC) (F)  (DEG/KT/KT) (MB)
MICHIGAN CITY    0000   34  300/ 20/ 23   N/A

$$

INZ004-005-014>016-021>024-300200-
NORTH CENTRAL INDIANA

CITY           SKY/WX    TMP DP  RH WIND       PRES   REMARKS
ELKHART        CLOUDY    32  25  74 NW9       30.10R WCI  24
GOSHEN         CLOUDY    33  27  78 NW17G25   30.09R WCI  22
SOUTH BEND     CLOUDY    35  26  69 NW18      30.12R WCI  24

$$

INZ006>009-017-018-025>027-300200-
NORTHEAST INDIANA

CITY           SKY/WX    TMP DP  RH WIND       PRES   REMARKS
ANGOLA *+      CLOUDY    32  27  80 NW13      30.03R WCI  22
FORT WAYNE     LGT SNOW  33  30  88 NW10      30.08R FOG     WCI  25

$$

INZ028-029-035-036-043>045-051>053-300200-
WEST CENTRAL INDIANA

CITY           SKY/WX    TMP DP  RH WIND       PRES   REMARKS
GREENCASTLE +  CLOUDY    32  28  86 NW7       30.19R WCI  26
LAFAYETTE      CLOUDY    33  29  85 W12       30.18R WCI  24
TERRE HAUTE    CLOUDY    35  30  82 NW12      30.23R WCI  27

$$

INZ030>032-037>040-046>048-054>057-064-065-300200-
CENTRAL INDIANA

CITY           SKY/WX    TMP DP  RH WIND       PRES   REMARKS
INDIANAPOLIS   CLOUDY    30  28  92 NW12      30.17R WCI  20
-EAGLE CREEK   CLOUDY    32  29  88 NW14      30.16R WCI  22
KOKOMO *+      CLOUDY    32  28  86 NW17      30.13R WCI  21
MT COMFORT *+  CLOUDY    32  32 100 NW14G21   30.15R WCI  22
SHELBYVILLE    CLOUDY    35  28  75 NW13      30.15R WCI  26

$$

INZ033-034-041-042-049-050-058-059-300200-
EAST CENTRAL INDIANA

CITY           SKY/WX    TMP DP  RH WIND       PRES   REMARKS
MUNCIE         CLOUDY    32  29  88 NW17G25   30.10R FOG     WCI  21

$$

INZ060-061-067>069-081>083-085>088-300200-
SOUTHWEST INDIANA

CITY           SKY/WX    TMP DP  RH WIND       PRES   REMARKS
EVANSVILLE     LGT RAIN  39  34  82 NW10      30.27R
HUNTINGBURG *+ CLOUDY    37  28  70 NW12G18   30.24R

$$

INZ062-063-066-070>080-084-089>092-300200-
SOUTH CENTRAL AND SOUTHEAST INDIANA

CITY           SKY/WX    TMP DP  RH WIND       PRES   REMARKS
BLOOMINGTON    CLOUDY    34  31  88 NW8       30.19R WCI  27
SEYMOUR +      CLOUDY    36  32  87 NW8       30.18R

$$



USA.gov is the U.S. government's official web portal to all federal, state and local government web resources and services.